TimeEST,TemperatureF,Dew PointF,Humidity,Sea Level PressureIn,VisibilityMPH,Wind Direction,Wind SpeedMPH,Gust SpeedMPH,PrecipitationIn,Events,Conditions,WindDirDegrees,DateUTC
12:14 AM,31.1,27.5,87,30.08,5.0,SE,6.9,-,N/A,,Overcast,140,2013-01-28 05:14:00
12:35 AM,31.6,28.0,87,30.07,4.0,SSE,9.2,-,N/A,,Overcast,150,2013-01-28 05:35:00
12:54 AM,31.8,28.4,87,30.05,5.0,SE,9.2,-,N/A,,Overcast,140,2013-01-28 05:54:00
1:14 AM,32.0,28.4,87,30.03,5.0,SE,8.1,-,N/A,,Overcast,140,2013-01-28 06:14:00
1:35 AM,32.0,28.9,88,30.02,5.0,SSE,10.4,-,N/A,,Overcast,150,2013-01-28 06:35:00
1:54 AM,32.0,29.1,89,30.01,5.0,SSE,9.2,-,N/A,,Overcast,150,2013-01-28 06:54:00
2:15 AM,32.0,29.3,90,30.00,4.0,SSE,8.1,-,N/A,,Overcast,150,2013-01-28 07:15:00
2:34 AM,32.4,30.0,91,30.01,3.0,South,5.8,-,N/A,,Overcast,170,2013-01-28 07:34:00
2:54 AM,32.9,30.6,91,30.00,5.0,SSE,8.1,-,N/A,,Overcast,160,2013-01-28 07:54:00
3:15 AM,32.9,30.7,92,29.98,2.5,SSE,8.1,-,N/A,,Overcast,160,2013-01-28 08:15:00
3:34 AM,33.1,31.1,92,29.98,2.5,South,6.9,-,N/A,,Overcast,170,2013-01-28 08:34:00
3:54 AM,33.3,31.5,93,29.96,2.0,South,5.8,-,N/A,,Overcast,170,2013-01-28 08:54:00
4:14 AM,33.3,31.6,94,29.95,2.0,South,6.9,-,N/A,,Overcast,170,2013-01-28 09:14:00
4:34 AM,33.4,31.6,93,29.93,2.5,South,6.9,-,N/A,,Overcast,170,2013-01-28 09:34:00
4:54 AM,33.4,31.8,94,29.92,2.5,SSE,8.1,-,N/A,,Overcast,160,2013-01-28 09:54:00
5:14 AM,33.8,32.0,93,29.92,2.5,South,8.1,-,N/A,,Overcast,170,2013-01-28 10:14:00
5:35 AM,34.0,32.0,92,29.90,2.5,SSE,8.1,-,N/A,,Overcast,160,2013-01-28 10:35:00
5:54 AM,34.3,32.2,92,29.90,2.0,South,6.9,-,N/A,,Overcast,190,2013-01-28 10:54:00
6:14 AM,34.5,32.4,92,29.89,2.0,South,6.9,16.1,N/A,,Overcast,170,2013-01-28 11:14:00
6:35 AM,34.7,32.9,93,29.88,2.5,South,9.2,-,N/A,,Overcast,180,2013-01-28 11:35:00
6:54 AM,35.2,33.3,92,29.88,3.0,South,9.2,-,N/A,,Overcast,190,2013-01-28 11:54:00
7:14 AM,35.6,33.4,92,29.87,2.5,South,9.2,-,N/A,,Overcast,170,2013-01-28 12:14:00
7:35 AM,35.6,33.6,92,29.87,2.5,South,9.2,-,N/A,,Light Drizzle,180,2013-01-28 12:35:00
7:54 AM,35.8,33.8,92,29.86,1.2,South,9.2,-,N/A,Rain,Light Rain,170,2013-01-28 12:54:00
8:15 AM,36.5,34.7,93,29.85,1.0,South,9.2,-,N/A,,Drizzle,170,2013-01-28 13:15:00
8:35 AM,36.7,34.9,93,29.85,0.8,South,6.9,-,N/A,Rain,Rain,180,2013-01-28 13:35:00
8:54 AM,37.8,36.0,93,29.85,0.8,South,8.1,-,N/A,,Light Drizzle,180,2013-01-28 13:54:00
9:15 AM,38.3,36.5,93,29.85,0.2,SSW,6.9,-,N/A,,Drizzle,200,2013-01-28 14:15:00
9:35 AM,39.2,37.4,93,29.85,0.8,SSW,6.9,-,N/A,,Drizzle,200,2013-01-28 14:35:00
9:54 AM,39.6,37.8,93,29.85,1.0,SSW,8.1,-,N/A,,Drizzle,200,2013-01-28 14:54:00
10:15 AM,39.7,37.9,93,29.85,1.5,SSW,8.1,-,N/A,,Overcast,200,2013-01-28 15:15:00
10:34 AM,40.1,38.3,93,29.85,1.0,SSW,5.8,-,N/A,,Light Drizzle,200,2013-01-28 15:34:00
10:54 AM,40.1,38.3,93,29.85,1.0,SSW,6.9,-,N/A,,Light Drizzle,200,2013-01-28 15:54:00
11:15 AM,40.5,38.7,93,29.85,1.0,SSW,5.8,-,N/A,,Overcast,210,2013-01-28 16:15:00
11:34 AM,41.5,39.7,93,29.85,1.0,SW,6.9,-,N/A,,Overcast,220,2013-01-28 16:34:00
12:15 PM,43.5,41.7,93,29.84,1.2,SW,9.2,-,N/A,,Overcast,220,2013-01-28 17:15:00
12:34 PM,43.7,41.9,93,29.83,1.2,SW,9.2,-,N/A,,Overcast,220,2013-01-28 17:34:00
12:55 PM,43.9,42.1,93,29.83,1.0,SW,9.2,-,N/A,,Overcast,220,2013-01-28 17:55:00
1:35 PM,44.4,42.6,93,29.83,1.0,SW,9.2,-,N/A,,Overcast,230,2013-01-28 18:35:00
1:55 PM,44.6,42.8,93,29.83,1.0,WSW,10.4,-,N/A,,Overcast,240,2013-01-28 18:55:00
2:14 PM,44.4,42.6,93,29.83,1.2,WSW,10.4,-,N/A,,Overcast,250,2013-01-28 19:14:00
2:35 PM,44.1,42.3,93,29.84,1.0,WSW,10.4,-,N/A,,Overcast,250,2013-01-28 19:35:00
2:55 PM,43.9,42.1,93,29.84,1.0,WSW,9.2,-,N/A,,Overcast,250,2013-01-28 19:55:00
3:14 PM,43.3,41.5,93,29.85,1.2,West,11.5,-,N/A,,Overcast,260,2013-01-28 20:14:00
3:35 PM,43.2,41.4,93,29.86,0.8,West,8.1,-,N/A,,Overcast,260,2013-01-28 20:35:00
3:54 PM,42.6,40.6,93,29.87,0.2,West,9.2,-,N/A,Fog,Fog,280,2013-01-28 20:54:00
4:15 PM,41.4,39.6,93,29.88,4.0,West,11.5,-,N/A,,Overcast,270,2013-01-28 21:15:00
4:34 PM,41.0,39.2,93,29.89,4.0,West,9.2,-,N/A,,Overcast,280,2013-01-28 21:34:00
4:54 PM,40.5,38.3,92,29.90,3.0,West,10.4,-,N/A,,Overcast,280,2013-01-28 21:54:00
5:15 PM,40.1,37.8,91,29.91,5.0,WNW,8.1,-,N/A,,Overcast,290,2013-01-28 22:15:00
5:34 PM,39.7,37.4,91,29.92,5.0,West,10.4,16.1,N/A,,Overcast,280,2013-01-28 22:34:00
5:54 PM,39.2,36.7,91,29.93,7.0,West,10.4,-,N/A,,Overcast,280,2013-01-28 22:54:00
6:15 PM,38.8,36.1,90,29.95,10.0,WNW,9.2,-,N/A,,Overcast,290,2013-01-28 23:15:00
6:34 PM,38.5,35.6,89,29.95,10.0,West,10.4,-,N/A,,Overcast,280,2013-01-28 23:34:00
6:54 PM,37.9,34.9,89,29.96,10.0,WNW,9.2,-,N/A,,Overcast,290,2013-01-28 23:54:00
7:14 PM,37.9,34.9,89,29.97,10.0,West,4.6,-,N/A,,Overcast,280,2013-01-29 00:14:00
7:34 PM,38.1,34.7,87,29.98,7.0,West,4.6,-,N/A,,Overcast,280,2013-01-29 00:34:00
7:54 PM,37.6,34.5,89,29.99,7.0,West,4.6,-,N/A,,Overcast,270,2013-01-29 00:54:00
8:14 PM,37.4,34.2,88,29.99,7.0,West,4.6,-,N/A,,Overcast,280,2013-01-29 01:14:00
8:35 PM,37.4,34.0,87,29.99,7.0,West,3.5,-,N/A,,Overcast,280,2013-01-29 01:35:00
8:54 PM,37.4,33.8,87,29.98,7.0,NW,3.5,-,N/A,,Overcast,310,2013-01-29 01:54:00
9:14 PM,37.0,33.4,87,30.00,10.0,Calm,Calm,-,N/A,,Overcast,0,2013-01-29 02:14:00
9:35 PM,36.5,33.1,87,30.00,7.0,Calm,Calm,-,N/A,,Overcast,0,2013-01-29 02:35:00
9:54 PM,36.5,33.3,88,30.00,7.0,Calm,Calm,-,N/A,,Overcast,0,2013-01-29 02:54:00
10:14 PM,36.7,33.4,88,30.00,7.0,Calm,Calm,-,N/A,,Overcast,0,2013-01-29 03:14:00
10:35 PM,36.0,32.5,87,30.00,7.0,Calm,Calm,-,N/A,,Overcast,0,2013-01-29 03:35:00
10:54 PM,36.0,32.9,89,30.00,7.0,Calm,Calm,-,N/A,,Overcast,0,2013-01-29 03:54:00
11:15 PM,35.1,32.2,89,30.00,10.0,Calm,Calm,-,N/A,,Overcast,0,2013-01-29 04:15:00
11:35 PM,34.7,32.0,90,30.00,7.0,Calm,Calm,-,N/A,,Mostly Cloudy,0,2013-01-29 04:35:00
11:54 PM,34.0,31.6,91,30.00,7.0,Calm,Calm,-,N/A,,Scattered Clouds,0,2013-01-29 04:54:00